GLD1774 TQPF-TISX

Flight info

Callsign GLD1774
Flight time 1h 9m
Altitude 4000
Route COY
Aircraft C172/L-SDFGIRY/S

Departure

Time 2026-04-16 15:35
Airport Clayton J. Lloyd International Airport (TQPF)

Arrival

Time 2026-04-16 16:44
Airport Henry E. Rohlsen Airport (TISX)
Time Latitude Longitude Altitude Speed Heading
2026-04-16 15:28 18.20675 -63.05595 108 ft 0 kts 281°
2026-04-16 15:32 18.20675 -63.05597 108 ft 2 kts 277°
2026-04-16 15:32 18.20652 -63.05585 108 ft 10 kts 129°
2026-04-16 15:32 18.20600 -63.05554 107 ft 8 kts 124°
2026-04-16 15:33 18.20558 -63.05533 107 ft 6 kts 179°
2026-04-16 15:33 18.20522 -63.05532 107 ft 5 kts 180°
2026-04-16 15:33 18.20479 -63.05473 105 ft 30 kts 91°
2026-04-16 15:33 18.20477 -63.05091 96 ft 71 kts 90°
2026-04-16 15:34 18.20459 -63.04495 224 ft 75 kts 95°
2026-04-16 15:34 18.20419 -63.03939 318 ft 90 kts 98°
2026-04-16 15:34 18.20353 -63.03326 616 ft 79 kts 115°
2026-04-16 15:34 18.19817 -63.03134 717 ft 106 kts 193°
2026-04-16 15:35 18.19331 -63.03751 913 ft 113 kts 243°
2026-04-16 15:35 18.19035 -63.04543 1060 ft 114 kts 245°
2026-04-16 15:35 18.18781 -63.05305 1286 ft 109 kts 245°
2026-04-16 15:35 18.18571 -63.06076 1478 ft 114 kts 264°
2026-04-16 15:36 18.18525 -63.06910 1689 ft 115 kts 263°
2026-04-16 15:36 18.18393 -63.07765 1890 ft 121 kts 246°
2026-04-16 15:36 18.18117 -63.08565 2082 ft 114 kts 249°
2026-04-16 15:36 18.17888 -63.09348 2288 ft 114 kts 247°
2026-04-16 15:37 18.17652 -63.10177 2463 ft 117 kts 251°
2026-04-16 15:37 18.17434 -63.10972 2638 ft 113 kts 249°
2026-04-16 15:37 18.17216 -63.11767 2785 ft 113 kts 250°
2026-04-16 15:37 18.16997 -63.12564 2940 ft 114 kts 250°
2026-04-16 15:38 18.16774 -63.13388 3087 ft 117 kts 249°
2026-04-16 15:38 18.16548 -63.14208 3231 ft 119 kts 249°
2026-04-16 15:38 18.16314 -63.15055 3389 ft 124 kts 250°
2026-04-16 15:38 18.16088 -63.15920 3529 ft 121 kts 249°
2026-04-16 15:39 18.15856 -63.16767 3671 ft 120 kts 250°
2026-04-16 15:39 18.15631 -63.17596 3808 ft 117 kts 250°
2026-04-16 15:39 18.15407 -63.18417 3931 ft 120 kts 249°
2026-04-16 15:39 18.15168 -63.19287 3940 ft 127 kts 249°
2026-04-16 15:40 18.14919 -63.20199 3914 ft 134 kts 249°
2026-04-16 15:40 18.14665 -63.21140 3910 ft 134 kts 249°
2026-04-16 15:40 18.14410 -63.22079 3916 ft 134 kts 249°
2026-04-16 15:40 18.14152 -63.23025 3911 ft 135 kts 249°
2026-04-16 15:41 18.13893 -63.23975 3912 ft 135 kts 249°
2026-04-16 15:41 18.13637 -63.24917 3911 ft 136 kts 249°
2026-04-16 15:41 18.13377 -63.25869 3907 ft 135 kts 250°
2026-04-16 15:41 18.13118 -63.26821 3906 ft 136 kts 249°
2026-04-16 15:42 18.12857 -63.27778 3910 ft 137 kts 248°
2026-04-16 15:42 18.12598 -63.28730 3908 ft 134 kts 249°
2026-04-16 15:42 18.12340 -63.29672 3905 ft 134 kts 250°
2026-04-16 15:42 18.12082 -63.30615 3904 ft 135 kts 249°
2026-04-16 15:43 18.11823 -63.31565 3904 ft 135 kts 249°
2026-04-16 15:43 18.11564 -63.32517 3902 ft 135 kts 250°
2026-04-16 15:43 18.11305 -63.33465 3902 ft 135 kts 250°
2026-04-16 15:43 18.11046 -63.34413 3901 ft 135 kts 249°
2026-04-16 15:44 18.10786 -63.35365 3898 ft 136 kts 249°
2026-04-16 15:44 18.10524 -63.36323 3902 ft 136 kts 249°
2026-04-16 15:44 18.10261 -63.37284 3899 ft 137 kts 250°
2026-04-16 15:44 18.10001 -63.38240 3899 ft 136 kts 250°
2026-04-16 15:45 18.09743 -63.39187 3901 ft 135 kts 248°
2026-04-16 15:45 18.09482 -63.40138 3895 ft 136 kts 249°
2026-04-16 15:45 18.09221 -63.41092 3894 ft 136 kts 249°
2026-04-16 15:45 18.08961 -63.42042 3896 ft 134 kts 250°
2026-04-16 15:46 18.08704 -63.42981 3888 ft 133 kts 249°
2026-04-16 15:46 18.08449 -63.43916 3889 ft 133 kts 248°
2026-04-16 15:46 18.08192 -63.44851 3891 ft 134 kts 249°
2026-04-16 15:46 18.07935 -63.45792 3888 ft 134 kts 248°
2026-04-16 15:47 18.07679 -63.46727 3885 ft 133 kts 249°
2026-04-16 15:47 18.07424 -63.47657 3888 ft 132 kts 250°
2026-04-16 15:47 18.07170 -63.48586 3888 ft 133 kts 248°
2026-04-16 15:47 18.06912 -63.49523 3889 ft 134 kts 248°
2026-04-16 15:48 18.06654 -63.50464 3893 ft 135 kts 249°
2026-04-16 15:48 18.06394 -63.51415 3895 ft 136 kts 249°
2026-04-16 15:48 18.06132 -63.52371 3896 ft 136 kts 248°
2026-04-16 15:48 18.05872 -63.53324 3895 ft 135 kts 249°
2026-04-16 15:49 18.05612 -63.54271 3896 ft 135 kts 249°
2026-04-16 15:49 18.05352 -63.55217 3894 ft 135 kts 248°
2026-04-16 15:49 18.05091 -63.56166 3890 ft 135 kts 249°
2026-04-16 15:49 18.04831 -63.57115 3892 ft 135 kts 249°
2026-04-16 15:50 18.04573 -63.58057 3889 ft 133 kts 249°
2026-04-16 15:50 18.04318 -63.58985 3885 ft 132 kts 249°
2026-04-16 15:50 18.04064 -63.59909 3886 ft 132 kts 248°
2026-04-16 15:50 18.03808 -63.60841 3887 ft 133 kts 249°
2026-04-16 15:51 18.03552 -63.61774 3891 ft 133 kts 249°
2026-04-16 15:51 18.03294 -63.62712 3890 ft 134 kts 249°
2026-04-16 15:51 18.03034 -63.63659 3892 ft 135 kts 249°
2026-04-16 15:51 18.02778 -63.64596 3887 ft 131 kts 248°
2026-04-16 15:52 18.02530 -63.65498 3882 ft 130 kts 248°
2026-04-16 15:52 18.02280 -63.66406 3879 ft 129 kts 248°
2026-04-16 15:52 18.02030 -63.67313 3881 ft 128 kts 248°
2026-04-16 15:52 18.01785 -63.68204 3879 ft 126 kts 248°
2026-04-16 15:53 18.01542 -63.69085 3876 ft 125 kts 247°
2026-04-16 15:53 18.01299 -63.69967 3877 ft 126 kts 248°
2026-04-16 15:53 18.01054 -63.70856 3883 ft 127 kts 248°
2026-04-16 15:53 18.00810 -63.71744 3879 ft 126 kts 248°
2026-04-16 15:54 18.00568 -63.72626 3880 ft 125 kts 248°
2026-04-16 15:54 18.00326 -63.73500 3879 ft 125 kts 248°
2026-04-16 15:54 18.00085 -63.74376 3882 ft 125 kts 247°
2026-04-16 15:54 17.99842 -63.75256 3881 ft 126 kts 247°
2026-04-16 15:55 17.99601 -63.76134 3878 ft 124 kts 247°
2026-04-16 15:55 17.99360 -63.77009 3876 ft 125 kts 247°
2026-04-16 15:55 17.99117 -63.77888 3885 ft 125 kts 248°
2026-04-16 15:55 17.98875 -63.78766 3886 ft 125 kts 247°
2026-04-16 15:56 17.98634 -63.79640 3884 ft 124 kts 246°
2026-04-16 15:56 17.98394 -63.80512 3884 ft 124 kts 247°
2026-04-16 15:56 17.98154 -63.81384 3886 ft 124 kts 247°
2026-04-16 15:56 17.97912 -63.82257 3890 ft 124 kts 248°
2026-04-16 15:57 17.97671 -63.83131 3888 ft 125 kts 246°
2026-04-16 15:57 17.97426 -63.84016 3887 ft 127 kts 246°
2026-04-16 15:57 17.97183 -63.84901 3880 ft 126 kts 247°
2026-04-16 15:57 17.96942 -63.85775 3877 ft 123 kts 246°
2026-04-16 15:58 17.96705 -63.86635 3887 ft 122 kts 246°
2026-04-16 15:58 17.96469 -63.87483 3890 ft 123 kts 246°
2026-04-16 15:58 17.96224 -63.88368 3889 ft 126 kts 247°
2026-04-16 15:58 17.95981 -63.89250 3887 ft 125 kts 248°
2026-04-16 15:59 17.95501 -63.90990 3887 ft 125 kts 247°
2026-04-16 15:59 17.95258 -63.91867 3891 ft 126 kts 247°
2026-04-16 15:59 17.95014 -63.92748 3892 ft 125 kts 247°
2026-04-16 16:00 17.94773 -63.93621 3886 ft 124 kts 247°
2026-04-16 16:00 17.94533 -63.94488 3888 ft 123 kts 247°
2026-04-16 16:00 17.94294 -63.95354 3887 ft 124 kts 247°
2026-04-16 16:00 17.94051 -63.96229 3892 ft 125 kts 247°
2026-04-16 16:01 17.93808 -63.97106 3892 ft 125 kts 247°
2026-04-16 16:01 17.93563 -63.97990 3891 ft 126 kts 246°
2026-04-16 16:01 17.93319 -63.98874 3888 ft 126 kts 247°
2026-04-16 16:01 17.93077 -63.99752 3890 ft 124 kts 247°
2026-04-16 16:02 17.92836 -64.00618 3888 ft 123 kts 246°
2026-04-16 16:02 17.92600 -64.01472 3885 ft 121 kts 246°
2026-04-16 16:02 17.92364 -64.02321 3880 ft 121 kts 246°
2026-04-16 16:02 17.92129 -64.03169 3884 ft 122 kts 246°
2026-04-16 16:03 17.91892 -64.04025 3884 ft 122 kts 246°
2026-04-16 16:03 17.91652 -64.04889 3883 ft 124 kts 247°
2026-04-16 16:03 17.91413 -64.05751 3882 ft 122 kts 247°
2026-04-16 16:03 17.91174 -64.06610 3886 ft 123 kts 246°
2026-04-16 16:04 17.90934 -64.07477 3888 ft 124 kts 246°
2026-04-16 16:04 17.90691 -64.08352 3886 ft 126 kts 246°
2026-04-16 16:04 17.90449 -64.09228 3883 ft 124 kts 247°
2026-04-16 16:04 17.90209 -64.10092 3880 ft 123 kts 246°
2026-04-16 16:05 17.89971 -64.10948 3880 ft 122 kts 246°
2026-04-16 16:05 17.89733 -64.11803 3886 ft 122 kts 246°
2026-04-16 16:05 17.89495 -64.12661 3886 ft 122 kts 246°
2026-04-16 16:05 17.89256 -64.13522 3885 ft 124 kts 246°
2026-04-16 16:06 17.89015 -64.14391 3882 ft 124 kts 246°
2026-04-16 16:06 17.88772 -64.15263 3884 ft 125 kts 245°
2026-04-16 16:06 17.88530 -64.16133 3886 ft 124 kts 246°
2026-04-16 16:06 17.88290 -64.16996 3886 ft 123 kts 246°
2026-04-16 16:07 17.88052 -64.17855 3886 ft 122 kts 246°
2026-04-16 16:07 17.87812 -64.18716 3882 ft 123 kts 245°
2026-04-16 16:07 17.87573 -64.19578 3885 ft 123 kts 246°
2026-04-16 16:07 17.87333 -64.20440 3887 ft 123 kts 246°
2026-04-16 16:08 17.87092 -64.21303 3888 ft 123 kts 246°
2026-04-16 16:08 17.86854 -64.22159 3884 ft 125 kts 246°
2026-04-16 16:08 17.86610 -64.23036 3886 ft 125 kts 246°
2026-04-16 16:08 17.86365 -64.23916 3889 ft 126 kts 246°
2026-04-16 16:09 17.86120 -64.24798 3889 ft 125 kts 246°
2026-04-16 16:09 17.85878 -64.25669 3887 ft 124 kts 246°
2026-04-16 16:09 17.85636 -64.26534 3885 ft 124 kts 247°
2026-04-16 16:09 17.85395 -64.27399 3883 ft 124 kts 247°
2026-04-16 16:10 17.85149 -64.28279 3884 ft 126 kts 247°
2026-04-16 16:10 17.84904 -64.29161 3883 ft 125 kts 247°
2026-04-16 16:10 17.84662 -64.30033 3887 ft 124 kts 246°
2026-04-16 16:10 17.84419 -64.30902 3885 ft 124 kts 246°
2026-04-16 16:11 17.84174 -64.31776 3888 ft 126 kts 246°
2026-04-16 16:11 17.83927 -64.32663 3889 ft 127 kts 246°
2026-04-16 16:11 17.83682 -64.33544 3885 ft 125 kts 246°
2026-04-16 16:11 17.83440 -64.34414 3887 ft 124 kts 246°
2026-04-16 16:12 17.83198 -64.35279 3883 ft 124 kts 246°
2026-04-16 16:12 17.82956 -64.36145 3887 ft 123 kts 246°
2026-04-16 16:12 17.82717 -64.37001 3883 ft 122 kts 246°
2026-04-16 16:12 17.82480 -64.37849 3884 ft 121 kts 246°
2026-04-16 16:13 17.82245 -64.38692 3879 ft 121 kts 245°
2026-04-16 16:13 17.82006 -64.39545 3879 ft 123 kts 245°
2026-04-16 16:13 17.81766 -64.40406 3881 ft 123 kts 246°
2026-04-16 16:13 17.81523 -64.41273 3882 ft 124 kts 247°
2026-04-16 16:14 17.81280 -64.42142 3886 ft 124 kts 247°
2026-04-16 16:14 17.81036 -64.43015 3884 ft 125 kts 247°
2026-04-16 16:14 17.80793 -64.43885 3885 ft 124 kts 246°
2026-04-16 16:14 17.80552 -64.44750 3882 ft 124 kts 246°
2026-04-16 16:15 17.80308 -64.45619 3890 ft 125 kts 246°
2026-04-16 16:15 17.80062 -64.46499 3886 ft 126 kts 247°
2026-04-16 16:15 17.79815 -64.47383 3891 ft 126 kts 246°
2026-04-16 16:15 17.79569 -64.48260 3887 ft 125 kts 246°
2026-04-16 16:16 17.79326 -64.49130 3888 ft 124 kts 246°
2026-04-16 16:16 17.79084 -64.49996 3884 ft 124 kts 245°
2026-04-16 16:16 17.78843 -64.50855 3884 ft 125 kts 246°
2026-04-16 16:16 17.78599 -64.51727 3887 ft 125 kts 246°
2026-04-16 16:17 17.78354 -64.52599 3884 ft 125 kts 246°
2026-04-16 16:17 17.78110 -64.53470 3879 ft 124 kts 246°
2026-04-16 16:17 17.77867 -64.54338 3887 ft 124 kts 245°
2026-04-16 16:17 17.77615 -64.55231 3766 ft 131 kts 245°
2026-04-16 16:18 17.77352 -64.56168 3624 ft 136 kts 246°
2026-04-16 16:18 17.77083 -64.57132 3483 ft 139 kts 246°
2026-04-16 16:18 17.76898 -64.57792 3391 ft 140 kts 247°
2026-04-16 16:18 17.76623 -64.58775 3247 ft 140 kts 245°
2026-04-16 16:19 17.76346 -64.59763 3098 ft 143 kts 247°
2026-04-16 16:19 17.76060 -64.60776 2956 ft 146 kts 247°
2026-04-16 16:19 17.75670 -64.62160 2784 ft 151 kts 248°
2026-04-16 16:19 17.75486 -64.62839 2674 ft 137 kts 246°
2026-04-16 16:20 17.75237 -64.63725 2484 ft 123 kts 248°
2026-04-16 16:20 17.75002 -64.64575 2279 ft 119 kts 250°
2026-04-16 16:20 17.74776 -64.65366 2219 ft 112 kts 249°
2026-04-16 16:20 17.74554 -64.66157 2421 ft 116 kts 245°
2026-04-16 16:21 17.74312 -64.66997 2305 ft 119 kts 246°
2026-04-16 16:21 17.74083 -64.67827 2273 ft 117 kts 246°
2026-04-16 16:21 17.73859 -64.68620 2278 ft 110 kts 244°
2026-04-16 16:21 17.73649 -64.69352 2389 ft 108 kts 243°
2026-04-16 16:22 17.73435 -64.70133 2395 ft 109 kts 244°
2026-04-16 16:22 17.73262 -64.70901 2393 ft 106 kts 246°
2026-04-16 16:22 17.73067 -64.71717 2374 ft 125 kts 251°
2026-04-16 16:22 17.72865 -64.72608 2327 ft 124 kts 251°
2026-04-16 16:23 17.72663 -64.73502 2308 ft 128 kts 249°
2026-04-16 16:23 17.72446 -64.74402 2258 ft 131 kts 250°
2026-04-16 16:23 17.72233 -64.75345 2209 ft 132 kts 252°
2026-04-16 16:23 17.72021 -64.76262 2151 ft 127 kts 250°
2026-04-16 16:24 17.71814 -64.77162 2111 ft 130 kts 252°
2026-04-16 16:24 17.71593 -64.78101 2076 ft 137 kts 250°
2026-04-16 16:24 17.71368 -64.79079 1996 ft 133 kts 253°
2026-04-16 16:24 17.71154 -64.80039 1984 ft 136 kts 252°
2026-04-16 16:25 17.70935 -64.80968 1991 ft 129 kts 251°
2026-04-16 16:25 17.70711 -64.81920 1988 ft 140 kts 252°
2026-04-16 16:25 17.70480 -64.82928 1973 ft 143 kts 251°
2026-04-16 16:25 17.70259 -64.83898 1991 ft 134 kts 252°
2026-04-16 16:26 17.70037 -64.84840 1979 ft 130 kts 249°
2026-04-16 16:26 17.69830 -64.85755 1985 ft 130 kts 248°
2026-04-16 16:26 17.69618 -64.86669 1980 ft 131 kts 251°
2026-04-16 16:26 17.69397 -64.87594 2007 ft 134 kts 249°
2026-04-16 16:27 17.69171 -64.88576 1992 ft 141 kts 251°
2026-04-16 16:27 17.69058 -64.89558 1989 ft 134 kts 263°
2026-04-16 16:27 17.68990 -64.90510 1979 ft 128 kts 261°
2026-04-16 16:27 17.68912 -64.91425 1981 ft 124 kts 261°
2026-04-16 16:28 17.68828 -64.92328 1983 ft 125 kts 260°
2026-04-16 16:28 17.68744 -64.93232 1983 ft 124 kts 259°
2026-04-16 16:28 17.68658 -64.94139 1978 ft 126 kts 258°
2026-04-16 16:28 17.68572 -64.95046 1977 ft 123 kts 258°
2026-04-16 16:29 17.68489 -64.95925 1976 ft 120 kts 259°
2026-04-16 16:29 17.68408 -64.96775 1978 ft 116 kts 261°
2026-04-16 16:29 17.68326 -64.97626 1977 ft 117 kts 260°
2026-04-16 16:29 17.68246 -64.98473 1972 ft 115 kts 257°
2026-04-16 16:30 17.68166 -64.99307 1974 ft 116 kts 257°
2026-04-16 16:30 17.68087 -65.00140 1977 ft 113 kts 258°
2026-04-16 16:30 17.68007 -65.00963 1978 ft 114 kts 260°
2026-04-16 16:30 17.67929 -65.01790 1980 ft 114 kts 257°
2026-04-16 16:31 17.67848 -65.02622 1974 ft 115 kts 257°
2026-04-16 16:31 17.67770 -65.03453 1970 ft 114 kts 256°
2026-04-16 16:31 17.67691 -65.04276 1969 ft 113 kts 259°
2026-04-16 16:31 17.67612 -65.05095 1970 ft 113 kts 260°
2026-04-16 16:32 17.67495 -65.05895 1962 ft 107 kts 239°
2026-04-16 16:32 17.67035 -65.06412 1968 ft 92 kts 200°
2026-04-16 16:32 17.66468 -65.06554 1969 ft 80 kts 169°
2026-04-16 16:32 17.65955 -65.06391 1970 ft 77 kts 142°
2026-04-16 16:33 17.65588 -65.05994 1980 ft 77 kts 120°
2026-04-16 16:33 17.65449 -65.05447 1974 ft 81 kts 96°
2026-04-16 16:33 17.65603 -65.04866 1965 ft 86 kts 69°
2026-04-16 16:33 17.66045 -65.04414 1971 ft 90 kts 49°
2026-04-16 16:34 17.66522 -65.03998 1983 ft 89 kts 49°
2026-04-16 16:34 17.67001 -65.03587 1984 ft 89 kts 49°
2026-04-16 16:34 17.67479 -65.03173 1982 ft 89 kts 54°
2026-04-16 16:34 17.67762 -65.02649 1985 ft 79 kts 86°
2026-04-16 16:35 17.67828 -65.02072 1987 ft 82 kts 92°
2026-04-16 16:35 17.67890 -65.01463 1990 ft 86 kts 90°
2026-04-16 16:35 17.67953 -65.00834 1986 ft 89 kts 89°
2026-04-16 16:35 17.68020 -65.00180 1951 ft 93 kts 91°
2026-04-16 16:36 17.68089 -64.99493 1868 ft 95 kts 90°
2026-04-16 16:36 17.68160 -64.98802 1776 ft 98 kts 91°
2026-04-16 16:36 17.68230 -64.98104 1672 ft 93 kts 88°
2026-04-16 16:36 17.68297 -64.97442 1565 ft 91 kts 88°
2026-04-16 16:37 17.68364 -64.96784 1485 ft 87 kts 88°
2026-04-16 16:37 17.68424 -64.96186 1478 ft 79 kts 89°
2026-04-16 16:37 17.68481 -64.95614 1398 ft 81 kts 91°
2026-04-16 16:37 17.68539 -64.95031 1305 ft 80 kts 91°
2026-04-16 16:38 17.68598 -64.94437 1212 ft 84 kts 90°
2026-04-16 16:38 17.68661 -64.93811 1119 ft 88 kts 91°
2026-04-16 16:38 17.68725 -64.93177 1035 ft 86 kts 91°
2026-04-16 16:38 17.68788 -64.92560 924 ft 82 kts 89°
2026-04-16 16:39 17.68844 -64.91990 826 ft 76 kts 88°
2026-04-16 16:39 17.68901 -64.91429 726 ft 78 kts 87°
2026-04-16 16:39 17.68958 -64.90861 642 ft 79 kts 87°
2026-04-16 16:39 17.69016 -64.90279 558 ft 83 kts 92°
2026-04-16 16:40 17.69079 -64.89659 493 ft 83 kts 85°
2026-04-16 16:40 17.69138 -64.89063 500 ft 81 kts 87°
2026-04-16 16:40 17.69197 -64.88484 497 ft 78 kts 86°
2026-04-16 16:40 17.69267 -64.87912 497 ft 79 kts 86°
2026-04-16 16:41 17.69331 -64.87342 472 ft 77 kts 91°
2026-04-16 16:41 17.69399 -64.86808 475 ft 70 kts 90°
2026-04-16 16:41 17.69454 -64.86309 487 ft 67 kts 90°
2026-04-16 16:41 17.69516 -64.85813 496 ft 65 kts 84°
2026-04-16 16:42 17.69574 -64.85306 508 ft 73 kts 86°
2026-04-16 16:42 17.69638 -64.84768 521 ft 72 kts 87°
2026-04-16 16:42 17.69702 -64.84225 474 ft 77 kts 86°
2026-04-16 16:42 17.69791 -64.83650 382 ft 83 kts 83°
2026-04-16 16:43 17.69647 -64.83148 372 ft 72 kts 102°
2026-04-16 16:43 17.69768 -64.82585 314 ft 89 kts 64°
2026-04-16 16:43 17.69962 -64.82033 255 ft 76 kts 86°
2026-04-16 16:43 17.70015 -64.81540 91 ft 59 kts 84°
2026-04-16 16:44 17.70045 -64.81235 62 ft 16 kts 83°
2026-04-16 16:44 17.70056 -64.81152 60 ft 9 kts 81°
2026-04-16 16:44 17.70067 -64.81058 58 ft 20 kts 83°
2026-04-16 16:44 17.70069 -64.80931 54 ft 9 kts 134°
2026-04-16 16:45 17.69999 -64.80921 54 ft 9 kts 171°
2026-04-16 16:45 17.69952 -64.80879 53 ft 11 kts 102°
2026-04-16 16:45 17.69955 -64.80795 51 ft 12 kts 84°
2026-04-16 16:45 17.69966 -64.80700 49 ft 14 kts 83°
2026-04-16 16:46 17.69976 -64.80597 47 ft 15 kts 84°
2026-04-16 16:46 17.69989 -64.80488 45 ft 16 kts 82°
2026-04-16 16:46 17.70006 -64.80374 43 ft 16 kts 79°
2026-04-16 16:46 17.70011 -64.80261 41 ft 15 kts 92°
2026-04-16 16:47 17.70021 -64.80151 39 ft 15 kts 82°
2026-04-16 16:47 17.70034 -64.80037 37 ft 16 kts 85°
2026-04-16 16:47 17.70047 -64.79920 35 ft 16 kts 84°
2026-04-16 16:47 17.70058 -64.79803 34 ft 16 kts 85°
2026-04-16 16:48 17.70067 -64.79685 32 ft 16 kts 95°
2026-04-16 16:48 17.69990 -64.79614 31 ft 14 kts 107°
2026-04-16 16:48 17.69986 -64.79568 30 ft 0 kts 79°